FENGYUN 1C DEB, 39540

Orbit data source: Space-Track

FENGYUN 1C DEB, 39540 is space debris in LEO originally from a launch on Mon, 10 May 1999 UTC launched from the Taiyaun Space Center, China (TSC). Fengyun 1C debris stems from the Chinese weather satellite Fengyun-1C, which was intentionally destroyed by a Chinese anti-satellite missile in 2007. This event dramatically increased the amount of space debris, with thousands of trackable fragments posing hazards to satellites and human spaceflight. The Fengyun 1C debris cloud has become a focal point in discussions about space sustainability and the need for international regulations to prevent the creation of new debris.

Loading next visibility...
Identifier
39540, 1999-025EWH
Orbit
LEO
Country
Flag of CNCN / PRC
Related business
Manufacturer
Unknown
Mission
Spacecraft
Bus & Motor
Unknown
Mass
Unknown
Launch date (UTC)
1999-05-10 (27 years ago)
Launch vehicle
Unknown
Launch site
Taiyaun Space Center, China (TSC)
Object type
Payload
Rocket body
Debris
Shape & HBR
Unknown shape, 0.1 m
Radar Cross Section
Small (<0.1 m²)

Expand to show TLE details & history
Last TLE update: 3 days ago

TLE from 3 days ago
0 FENGYUN 1C DEB
1 39540U 99025EWH 26168.20503056  .00001516  00000-0  19230-2 0  9990
2 39540 106.1901 149.8657 0401013 339.3337  35.9230 13.37665609715912
Epoch: 2026-06-17T04:55Z
TLE epoch observation values (Epoch: 2026-06-17T04:55:14.640Z)
Latitude
17.32129°
Longitude
165.42104°
Altitude
880.772 km
Speed
7.531 km/s
True Right ascension
09h 38m 47s
True Declination
17° 13' 32"
Sunlit
Object was in daylight at epoch
Visualization orbit readout
Latitude
Unknown
Longitude
Unknown
Altitude
Unknown
Speed
Unknown
Apparent Right ascension
Unknown
Apparent Declination
Unknown
Sunlit
N/A
Visualization observer readout
Local Sidereal Time
05:13:41
Azimuth
Unknown
Elevation
Unknown
Doppler factor
Unknown
Orbital elements
Apogee altitude
1,416.249 km
Perigee altitude
815.221 km
Semi-major axis
7,493.872 km
Eccentricity
0.0401
Inclination
106.1901°
RAAN
149.8657°
Arg. of periapsis
339.3337°
True anomaly
38.73177°
Mean anomaly
35.923°
Eccentric anomaly
37.31585°
Mean motion
3.34568 °/min
Orbital period
107.6 mins
BSTAR
0.001923
Loading maneuver chart data...
Computing Atmospheric mass density...

Documentation

Showing up to 5 results
|